Torna al catalogo

CSG-2

AttivoScienzaSSO
NORAD 51444·PAYLOAD·🇮🇹 Italy

Lanciato Jan 31, 2022 da Cape Canaveral Space Force Station

Loading…

Prossimi Passaggi (prossime 24 ore)

TLE

AggiornatoSource: Space-Track

Epoca: Sep 14, 2026, 14:29 UTC

1 51444U 22008A   26257.60409363  .00000434  00000-0  61078-4 0  9990
2 51444  97.8904  79.9263 0001383  82.5156 277.6214 14.82152594249831

Traccia CSG-2 in tempo reale con AllMySat

Download on the App Store